Location: Amsterdam
(30.7274°N, 84.4357°W)
Time: 00:04:31
(UTC+00:00)

Explorer 11/Cluster Stage 4 - Pass Details

Date: 22 February 2026
Orbit: 463 x 1176 km, 28.8° (Epoch: 9 March)

Event Time Altitude Azimuth Distance (km) Brightness Sun altitude
Rises 18:15:10 0° 264° (W) 3,153 9.8 48.9°
Reaches altitude 10° 18:17:51 10° 262° (W) 2,107 9.1 48.8°
Maximum altitude 18:22:39 69° 180° (S) 625 7.7 48.6°
Drops below altitude 10° 18:26:39 10° 97° (E) 1,755 8.5 48.4°
Sets 18:28:43 0° 94° (E) 2,578 9.2 48.3°
